Regional Weather Roundup
Issued by NWS Wakefield, VA

Home | Current Version | Previous Version | Text Only | Print | Product List | Glossary Off
Versions: 1 2 3 4 5 6 7 8 9 10 11 12 13 14 15 16 17 18 19 20 21 22 23 24 25 26 27 28 29 30 31 32 33 34 35 36 37 38 39 40 41 42 43 44 45 46 47 48 49 50

000
ASUS41 KAKQ 291910
RWRAKQ

REGIONAL WEATHER ROUNDUP
NATIONAL WEATHER SERVICE WAKEFIELD VA
300 PM EDT TUE JUL 29 2014

Note: "fair" indicates few or no clouds below 12,000 feet with no
significant weather and/or obstructions to visibility. * = Denotes
station may not report precipitation (e.g., rain,snow,etc.),
thunder or fog.

VAZ042-051-052>054-056-292000-
NORTHERN VIRGINIA

CITY           SKY/WX    TMP DP  RH WIND       PRES   REMARKS
WASH NATIONAL  PTSUNNY   77  48  35 NW12G21   29.95S
DULLES         PTSUNNY   72  45  37 NW14G22   29.95S
FORT BELVOIR   MOSUNNY   75  49  39 NW13G20   29.95S
QUANTICO       MOSUNNY   77  50  38 N14       29.95S
FREDERICKSBRG* PTSUNNY   76  55  46 NW8       29.94S
STAFFORD*      PTSUNNY   74  53  47 W7        29.98S
WARRENTON      MOSUNNY   77  60  56 NW12      29.94F
CULPEPER*      SUNNY    N/A N/A N/A NW8       29.95S
MANASSAS*      NOT AVBL
LEESBURG*      MOSUNNY   73  54  49 NW14G21   29.96S
WINCHESTER     PTSUNNY   70  45  40 N5G16     29.97S
$$

VAZ048-049-060>072-079>083-292000-
CENTRAL AND SOUTH CENTRAL VIRGINIA...AND NORTH CENTRAL NORTH CAROLINA

CITY           SKY/WX    TMP DP  RH WIND       PRES   REMARKS
RICHMOND       MOSUNNY   82  50  32 NW8       29.94S
CHESTERFIELD*  MOCLDY    81  48  32 NW7       29.96S
HANOVER        MOSUNNY   78  53  41 VRB7      29.95F
TAPPAHANNOCK*  MOSUNNY   78  47  33 SW6       29.94S
CHARLOTTSVILLE MOSUNNY   75  55  49 VRB6      29.95F
ORANGE*        MOSUNNY   73  52  46 W7        29.96F
LOUISA*        PTSUNNY   75  57  53 W6        29.94S
FARMVILLE*     PTSUNNY   79  50  36 S3        29.92F
SOUTH HILL*    MOSUNNY   81  54  39 NW3       30.00S
ROANOKE RAPIDS NOT AVBL
RALEIGH        MOSUNNY   80  55  42 CALM      29.95S
$$

VAZ088>098-292000-
SOUTHEAST VIRGINIA

CITY           SKY/WX    TMP DP  RH WIND       PRES   REMARKS
NORFOLK        SUNNY     77  60  55 N9        29.94S
VIRGINIA BEACH MOSUNNY   76  60  57 NE7       29.93S
NORFOLK NAVAL  MOSUNNY   77  60  55 NE7       29.95S
WEST POINT*    MOSUNNY   81  48  32 CALM      29.95S
NEWPORT NEWS   MOSUNNY   81  54  39 VRB6      29.94S
LANGLEY AFB    SUNNY     78  54  43 VRB6      29.93S
FORT EUSTIS    SUNNY     78  56  46 VRB6      29.93R
WILLIAMSBURG*  SUNNY     82  55  39 N7        29.95R
FRANKLIN*      SUNNY     79  54  41 CALM      29.94S
WAKEFIELD      SUNNY     80  54  40 N7        29.94S
$$

VAZ020-022-025-037-045-292000-
WESTERN AND SOUTHWEST VIRGINIA

CITY           SKY/WX    TMP DP  RH WIND       PRES   REMARKS
STAUNTON*      CLOUDY    73  49  41 NW6       29.98F
HOT SPRINGS VA PTSUNNY   60  47  61 NW8       30.07S
LYNCHBURG      SUNNY     75  56  51 SW6       29.97F
DANVILLE       SUNNY     78  54  43 NW5       29.95F
MARTINSVILLE   MOSUNNY   81  55  41 S6        29.98F
ROANOKE        PTSUNNY   77  47  34 W6        29.97S
BLACKSBURG     MOSUNNY   73  54  49 NW9       30.02F
DUBLIN*        PTSUNNY   74  50  42 NW10      30.01F
MARION*        PTSUNNY   71  51  48 W5        30.05F
HILLSVILLE*    PTSUNNY   71  47  43 W8        30.02F
RICHLANDS*     MOCLDY    70  53  54 W6        30.05S
WISE*          CLOUDY    68  52  56 W8        30.08S
ABINGDON*      PTSUNNY   74  54  48 N5G16     30.03F
$$

MDZ021>025-VAZ099-100-292000-
SOUTHERN MARYLAND AND THE DELMARVA PENINSULA

CITY           SKY/WX    TMP DP  RH WIND       PRES   REMARKS
PATUXENT RIVER MOSUNNY   77  50  38 W13G21    29.93S
BAY BRIDGE APT   N/A     73  48  40 W9        29.94R
LEONARDTOWN    MOSUNNY   73  48  40 W14       29.95S
DOVER          MOSUNNY   74  59  58 SW5       29.90R
GEORGETOWN     PTSUNNY   76  58  53 VRB7      29.92S
EASTON         NOT AVBL
CAMBRIDGE      MOSUNNY   77  52  41 W10G17    29.93R
SALISBURY      NOT AVBL
OCEAN CITY     PTSUNNY   72  61  68 SE6       29.93R
WALLOPS ISLAND SUNNY     79  52  38 NW13      29.93S
ACCOMACK*        N/A     75  50  41 N8        29.94S
$$

NCZ012>017-030>032-292000-
EASTERN NORTH CAROLINA

CITY           SKY/WX    TMP DP  RH WIND       PRES   REMARKS
ELIZABETH CITY PTSUNNY   79  65  62 VRB6      29.93S
AHOSKIE*       SUNNY     78  56  46 N3        29.94S
EDENTON*       SUNNY     80  61  52 N3        29.93S
CURRITUCK*     PTSUNNY   79  62  55 NE8       29.94S
KILL DEVIL HLS SUNNY     78  64  62 N6        29.92S
MANTEO         NOT AVBL
CAPE HATTERAS  PTSUNNY   82  67  60 NE8       29.91F
GOLDSBORO      MOSUNNY   82  63  53 VRB2      29.91S
WASHINGTON     MOSUNNY   80  64  56 NE8       29.93S
GREENVILLE     MOSUNNY   81  59  47 N9        29.95S
NEW BERN       MOSUNNY   85  65  51 E6        29.92S
WILMINGTON     MOSUNNY   86  64  47 N3        29.89F
$$

VAZ048-292000-
ELSEWHERE

CITY           SKY/WX    TMP DP  RH WIND       PRES   REMARKS
HARRISBURG PA  CLOUDY    73  54  51 NW10      29.92R
BALTIMORE      PTSUNNY   75  51  43 W10G17    29.92S
ANNAPOLIS      PTSUNNY   73  52  47 W10       29.93R
ANDREWS AFB    PTSUNNY   73  49  42 NW15G21   29.94S
WILMINGTON DE  CLOUDY    73  55  53 NW7       29.92R
PHILADELPHIA   CLOUDY    74  51  44 W6        29.91R
WILDWOOD NJ*   CLOUDY    73  50  43 W6        29.92S
ATLANTIC CITY  CLOUDY    76  55  48 VRB7      29.90R
HENDERSON NC   MOSUNNY   78  51  39 SW3       29.96F
GREENSBORO     MOSUNNY   78  55  44 S6        29.95F
ROCKY MOUNT    SUNNY     82  55  39 N7        29.94S
FAYETTEVILLE   CLOUDY    85  56  37 VRB5      29.91F
CHARLOTTE      MOSUNNY   80  53  39 VRB3      29.96F
$$

VAZ100-292000-
MARINE

STATION/POSITION TIME  TEMP    WIND        PRES    WAVE   SWELL
                       AIR SEA DIR/SP/G            HT/PER HT/PER
                 (UTC) (F)     (DEG/KT/KT) (MB)    (FT/S) (FT/S)
44066 TX TWR #4  1900   69 75  300/  4/  6 1012.5R   4/ 7   3/ 7
CAPE MAY NJ      1900   73 79  320/  4/  5 1012.6R
LEWES DE         1900   71 74   40/  6/  7 1012.7S
15NM E FENWICK I 1900   70 74              1013.6R   2/ 8
OCEAN-CITY-INLET 1900   72 69  130/  5/  8 1013.0R
WACHAPREAGUE VA  1900   77 79  320/  3/  9 1013.7S
THOMAS POINT MD  1900   70 78  270/ 10/ 12 1014.2R
GOOSES REEF MD   1900   72     310/ 10/ 14 1014.1S
COVE POINT MD    1900   72     330/ 14/ 18 1013.3F
SOLOMONS ISLAND  1900      80                N/A
BISHOPS HEAD MD  1900   73 78  290/ 14/ 17 1013.2R
PINEY POINT MD   1900          330/ 19/ 21   N/A
POTOMAC MD       1900   73     330/ 16/ 19 1012.9S
CAMBRIDGE MD     1900   72 79  290/ 11/ 18 1013.3R
LEWISETTA VA     1900   74 78  350/ 10/ 14 1013.5S
RAPPAHANNOCK LGT 1900          350/  5/  7 1014.3F
STINGRAY PT      1900   75     290/  8/ 12 1014.4S
YORK RVR RNG VA  1900   75      20/  6/  8 1013.2S
YORKTOWN VA      1900   75 79  320/  5/  7 1013.6S
JAMESTOWN VA     1900   74     280/  4/  6   N/A
DOMINION TERM VA 1900   76     300/ 11/ 13 1013.7S
KIPTOPEKE VA     1900      81  320/  9/ 12   N/A
CHES BAY BRIDGE  1900   73 77  350/  7/ 10 1013.3S
CAPE HENRY VA    1900   73      10/  7/  9 1012.7S
WILLOUBY STN VA  1900           90/  7/  9 1013.1S
S CRANEY ISL VA  1900          320/  3/  5 1013.7F
CAPE HENRY BUOY  1900      78                N/A     2/ 3
1ST LANDING BUOY 1900   74      30/  6/  8 1013.6S
CAPE CHARLES BUO 1900      76                N/A     2/ 9
OFFSHORE WE BUOY 1900      79                N/A     2/ 8
64NM E OF VA BCH 1900   74 79  360/  8/ 10 1013.4R   3/ 5   2/ 5
DUCK PIER NC     1900   74 71   20/ 10/ 11 1013.0R
44056 DUCK FRF   1900                        N/A     2/ 4
OREGON INLET NC  1900   76 78   20/ 10/ 13 1013.2F
HATTERAS NC      1900   78 80   20/ 12/ 15 1013.2F
DIAMOND SHLS NC  1900          VRB 14/ 16  1012.4R   4/ 8   3/ 8
CAPE LOOKOUT NC  1800   78      50/ 12/ 13 1012.7F
$$


USA.gov is the U.S. government's official web portal to all federal, state and local government web resources and services.